Station: Cape Wessel  

  Atmospheric Gas Attenuation - ITU Rec 676-11   ----------------- dB/100km -----------------
Date Time Temp RH % AH g/m3 Dew Point Wind Direction Speed kph Gust kph Barometer mB Rainfall Since 9am 24GHz 47GHz 76GHz 122GHz 134GHz 241GHz
08/05 18:30 27.7 78 20.87 23.5 32 41 1009.9 0 44.7 42.1 83.0 219.7 244.7 850.4
08/05 18:20 27.8 79 21.25 23.8 32 33 1009.8 0 45.4 42.8 84.7 224.2 250.3 869.8
08/05 18:10 27.9 81 21.91 24.3 32 33 1009.8 0 46.8 44.0 87.8 232.4 260.3 904.8
08/05 18:00 28 80 21.76 24.2 28 35 1009.7 0 46.5 43.7 86.9 230.1 257.6 895.3
08/05 17:50 28.1 80 21.88 24.3 28 32 1009.6 0 46.7 43.9 87.4 231.4 259.1 900.6
08/05 17:40 28.2 80 22 24.4 30 32 1009.5 0 47.0 44.0 87.8 232.6 260.7 905.9
08/05 17:30 28.3 78 21.57 24.1 32 37 1009.4 0 46.1 43.1 85.6 226.7 253.5 881.2
08/05 17:20 28.6 78 21.92 24.4 28 32 1009.3 0 46.8 43.7 87.0 230.3 258.0 896.6
08/05 17:10 28.7 77 21.76 24.3 32 39 1009.3 0 46.4 43.3 86.1 227.9 255.1 886.7
08/05 17:00 28.4 76 21.13 23.8 30 37 1009.2 0 45.1 42.2 83.4 220.8 246.3 856.1
08/05 16:50 29.1 79 22.82 25.1 28 30 1009.2 0 48.6 45.1 90.7 240.3 270.4 939.9
08/05 16:40 29.6 79 23.45 25.6 24 30 1009.1 0 49.9 46.1 93.2 246.9 278.6 968.4
08/05 16:30 29.4 78 22.9 25.2 26 32 1008.9 0 48.7 45.1 90.7 240.3 270.5 940.4
08/05 16:20 29.2 79 22.94 25.2 22 26 1008.9 0 48.9 45.3 91.2 241.5 271.9 945.1
08/05 16:10 28.6 78 21.92 24.4 28 30 1008.8 0 46.8 43.6 86.9 230.2 257.9 896.3
08/05 16:00 28.5 80 22.36 24.7 30 39 1008.7 0 47.7 44.5 89.2 236.2 265.2 921.6
08/05 15:50 29.8 79 23.7 25.8 30 33 1008.7 0 50.4 46.5 94.2 249.4 281.8 979.5
08/05 15:40 29 79 22.69 25 33 39 1008.6 0 48.4 44.9 90.2 238.8 268.6 933.6
08/05 15:30 30.3 73 22.5 25.1 35 43 1008.5 0 47.8 43.8 87.7 232.3 261.0 907.3
08/05 15:20 30.7 71 22.36 24.8 39 44 1008.5 0 47.4 43.4 86.6 229.3 257.4 895.0
08/05 15:10 31.4 69 22.57 25 33 39 1008.4 0 47.8 43.4 86.8 229.8 258.2 897.8
08/05 15:00 31.2 69 22.33 24.8 35 43 1008.4 0 47.3 43.0 85.9 227.4 255.2 887.5
08/05 14:50 31.2 68 22 24.6 35 41 1008.4 0 46.6 42.4 84.3 223.3 250.2 870.0
08/05 14:40 31.2 68 22 24.6 35 41 1008.5 0 46.6 42.4 84.3 223.4 250.2 870.1
08/05 14:30 31.5 70 23.02 25.4 33 41 1008.7 0 48.7 44.2 88.8 235.2 264.8 920.9
08/05 14:20 31.7 68 22.6 25.1 35 39 1008.8 0 47.8 43.3 86.6 229.4 257.7 896.1
08/05 14:10 31.7 69 22.93 25.5 35 39 1008.9 0 48.5 43.9 88.1 233.5 262.8 913.7
08/05 14:00 31.5 67 22.03 24.6 35 43 1009 0 46.6 42.3 84.2 222.9 249.8 868.5
08/05 13:50 30.4 72 22.32 24.8 35 39 1009 0 47.4 43.5 86.8 229.8 257.9 896.7
08/05 13:40 30.4 73 22.63 25 30 35 1009 0 48.0 44.1 88.3 233.7 262.7 913.4
08/05 13:30 30.7 70 22.05 24.6 32 39 1009.1 0 46.8 42.8 85.2 225.6 252.8 878.8
08/05 13:20 31.3 70 22.77 25.2 30 33 1009.1 0 48.2 43.8 87.9 232.8 261.7 910.1
08/05 13:10 32 69 23.3 25.8 28 32 1009.2 0 49.2 44.5 89.6 237.3 267.4 930.1
08/05 13:00 31.8 68 22.72 25.2 30 39 1009.3 0 48.1 43.5 87.1 230.6 259.3 901.6
08/05 12:50 32.2 70 23.89 26 30 35 1009.5 0 50.5 45.5 92.2 244.1 275.9 959.5
08/05 12:40 31.9 67 22.51 25.2 28 32 1009.6 0 47.6 43.1 86.0 227.8 255.8 889.5
08/05 12:30 31.8 69 23.05 25.4 32 43 1009.8 0 48.7 44.1 88.7 234.8 264.4 919.5
08/05 12:20 31.4 67 21.91 24.5 33 39 1009.9 0 46.4 42.2 83.8 221.9 248.4 863.9
08/05 12:10 31.8 68 22.72 25.2 32 37 1010.1 0 48.0 43.5 87.1 230.8 259.4 902.1
08/05 12:00 31.7 69 22.93 25.3 32 39 1010.2 0 48.5 44.0 88.2 233.7 263.0 914.5
08/05 11:50 31.5 71 23.34 25.6 30 35 1010.3 0 49.4 44.9 90.4 239.5 270.1 939.1
08/05 11:40 31.6 69 22.81 25.2 32 35 1010.5 0 48.3 43.8 87.8 232.6 261.5 909.5
08/05 11:30 31 70 22.41 24.9 32 39 1010.6 0 47.5 43.4 86.6 229.4 257.5 895.3
08/05 11:20 30.7 71 22.36 24.8 33 37 1010.7 0 47.4 43.5 86.7 229.7 257.8 896.3
08/05 11:10 31.2 69 22.33 24.8 35 39 1010.8 0 47.3 43.1 86.0 227.8 255.6 888.9
08/05 11:00 31.2 69 22.33 24.8 33 41 1010.9 0 47.3 43.1 86.0 227.9 255.6 888.9
08/05 10:50 30.8 71 22.48 24.9 35 39 1011 0 47.7 43.6 87.2 231.0 259.3 901.7
08/05 10:40 31 72 23.05 25.4 30 37 1011.1 0 48.8 44.6 89.7 237.6 267.5 930.0
08/05 10:30 30.5 75 23.37 25.6 32 39 1011.2 0 49.6 45.5 91.8 243.3 274.3 953.8
08/05 10:20 30.8 74 23.43 25.6 28 32 1011.3 0 49.7 45.5 91.8 243.1 274.2 953.4
08/05 10:10 30.3 72 22.2 24.7 33 37 1011.4 0 47.1 43.4 86.5 229.0 256.8 892.9
08/05 10:00 30.8 74 23.43 25.6 30 39 1011.4 0 49.7 45.5 91.8 243.1 274.2 953.4
08/05 09:50 30.3 72 22.2 24.7 32 35 1011.4 0 47.1 43.4 86.5 229.0 256.8 892.9
08/05 09:40 30.5 73 22.75 25.1 32 37 1011.4 0 48.3 44.3 88.9 235.4 264.6 920.1
08/05 09:30 30 72 21.84 24.4 32 39 1011.5 0 46.4 42.9 85.1 225.4 252.3 877.1
08/05 09:20 30.3 73 22.5 25.1 28 32 1011.5 0 47.8 44.0 87.9 232.8 261.5 909.1
08/05 09:10 29.9 74 22.32 24.8 33 37 1011.5 0 47.4 43.8 87.5 231.8 260.1 904.1
08/05 09:00 29.7 75 22.38 24.8 32 39 1011.5 0 47.6 44.1 88.0 233.2 261.7 909.8
08/05 08:50 29.5 74 21.84 24.4 28 33 1011.5 0 46.5 43.1 85.7 226.9 254.0 883.0
08/05 08:40 29.3 76 22.19 24.6 28 37 1011.5 0 47.2 43.9 87.6 232.0 260.1 904.3
08/05 08:30 29 76 21.83 24.3 33 39 1011.5 0 46.5 43.4 86.2 228.3 255.6 888.3
08/05 08:20 28.9 76 21.71 24.2 28 32 1011.4 0 46.3 43.2 85.8 227.0 254.0 882.9
08/05 08:10 28.5 78 21.8 24.3 32 39 1011.4 0 46.5 43.6 86.6 229.4 256.8 892.5
08/05 08:00 28 78 21.21 23.8 32 39 1011.2 0 45.3 42.7 84.4 223.3 249.2 866.1
08/05 07:50 28.3 77 21.29 23.9 32 35 1011.2 0 45.5 42.7 84.4 223.5 249.5 867.0
08/05 07:40 28 79 21.49 24 28 30 1011.2 0 45.9 43.2 85.7 226.9 253.6 881.4
08/05 07:30 27.7 80 21.4 23.9 32 41 1011.2 0 45.8 43.2 85.6 226.7 253.2 880.0
08/05 07:20 27.6 79 21.02 23.6 32 37 1011.2 0 45.0 42.5 83.9 222.1 247.6 860.4
08/05 07:10 27.3 79 20.67 23.3 32 35 1011.2 0 44.3 42.0 82.6 218.5 243.1 844.8
08/05 07:00 27.1 80 20.7 23.3 28 39 1011.1 0 44.4 42.2 82.9 219.5 244.2 848.7
08/05 06:50 26.9 81 20.73 23.4 32 37 1011 0 44.4 42.3 83.3 220.4 245.3 852.5
08/05 06:40 26.8 81 20.62 23.3 26 28 1010.9 0 44.2 42.1 82.9 219.3 243.9 847.6
08/05 06:30 26.7 82 20.76 23.4 32 37 1010.8 0 44.5 42.5 83.6 221.4 246.4 856.3
08/05 06:20 26.8 82 20.87 23.5 30 33 1010.8 0 44.7 42.6 84.0 222.5 247.8 861.2
08/05 06:10 26.7 82 20.76 23.4 32 37 1010.8 0 44.5 42.5 83.6 221.4 246.4 856.3
08/05 06:00 26.8 82 20.87 23.5 30 35 1010.7 0 44.8 42.6 84.0 222.5 247.8 861.1
08/05 05:50 26.8 82 20.87 23.5 30 33 1010.6 0 44.8 42.6 84.0 222.5 247.8 861.0
08/05 05:40 26.9 81 20.73 23.4 28 32 1010.7 0 44.4 42.3 83.3 220.4 245.3 852.3
08/05 05:30 26.8 81 20.62 23.3 32 41 1010.6 0 44.2 42.1 82.8 219.3 243.9 847.4
08/05 05:20 26.9 81 20.73 23.4 26 33 1010.6 0 44.4 42.3 83.2 220.4 245.3 852.3
08/05 05:10 26.8 81 20.62 23.3 35 39 1010.5 0 44.2 42.1 82.8 219.2 243.9 847.4
08/05 05:00 26.9 81 20.73 23.4 33 41 1010.4 0 44.4 42.3 83.2 220.3 245.2 852.2
08/05 04:50 26.9 81 20.73 23.4 33 39 1010.3 0 44.4 42.3 83.2 220.3 245.2 852.1
08/05 04:40 26.8 78 19.85 22.6 35 39 1010.2 0 42.6 40.6 79.1 209.5 231.9 805.7
08/05 04:30 27 80 20.59 23.3 35 46 1010.2 0 44.1 42.0 82.4 218.2 242.7 843.3
08/05 04:20 27 80 20.59 23.3 33 41 1010.2 0 44.1 42.0 82.4 218.2 242.7 843.3
08/05 04:10 27.1 81 20.96 23.6 35 44 1010.2 0 44.9 42.6 84.1 222.7 248.2 862.3
08/05 04:00 27.1 80 20.7 23.3 37 46 1010.2 0 44.4 42.1 82.9 219.3 244.1 848.2
08/05 03:50 27.2 82 21.34 23.9 37 43 1010.2 0 45.7 43.3 85.8 227.2 253.8 882.0
08/05 03:40 27.2 81 21.08 23.7 37 44 1010.2 0 45.2 42.8 84.6 223.9 249.7 867.7
08/05 03:30 27.3 81 21.2 23.7 39 46 1010.1 0 45.4 43.0 85.0 225.1 251.2 873.0
08/05 03:20 27.4 81 21.31 23.8 41 46 1010.2 0 45.6 43.1 85.5 226.2 252.6 878.0
08/05 03:10 27.4 81 21.31 23.8 35 41 1010.3 0 45.6 43.1 85.5 226.3 252.7 878.0
08/05 03:00 27.3 83 21.72 24.2 35 44 1010.4 0 46.5 44.0 87.6 231.9 259.5 901.9
08/05 02:50 26.7 86 21.77 24.2 30 33 1010.5 0 46.7 44.4 88.5 234.4 262.5 912.0
08/05 02:40 26.4 87 21.66 24.1 24 28 1010.6 0 46.5 44.4 88.4 233.9 261.8 909.5
08/05 02:30 26.4 87 21.66 24.1 37 48 1010.6 0 46.5 44.4 88.4 233.9 261.8 909.5
08/05 02:20 27.6 82 21.82 24.2 32 39 1010.5 0 46.7 44.0 87.7 232.3 260.1 903.8
08/05 02:10 27.4 80 21.05 23.6 35 39 1010.5 0 45.1 42.7 84.2 223.0 248.6 863.9
08/05 02:00 27.1 80 20.7 23.3 33 44 1010.6 0 44.4 42.1 82.9 219.4 244.1 848.4

Last Refresh: 08-May-2026 18:37:42

Bureau of Meteorology